Flag for Italy Weather past 2 weeks in Firenze, Italy

Now
61 °F

Partly sunny.


Feels Like: 61 °F
Forecast: 45 / 69 °F
Wind: 12 mph from Southwest

Location: Florence / Peretola

Current Time: Mar 31, 2015 at 8:11:14 PM

Latest Report: Mar 31, 2015 at 7:50 PM


Visibility: N/A

Pressure: 29.77 "Hg

Humidity: 72%

Dew point: 52 °F

Location of FirenzeLocation

Historic Weather in Firenze — Graph

°F

Firenze temperature yesterday

Maximum temperature yesterday: 63 °F (at 4:20 PM)
Minimum temperature yesterday: 48 °F (at 3:20 AM)
Average temperature yesterday: 55 °F

Past Weeks' High & Low Weather Summary

 TemperatureHumidityPressure
High68 °F (Mar 19, 3:50 PM)100% (Mar 26, 11:20 PM)30.24 "Hg (Mar 26, 11:20 PM)
Low37 °F (Mar 29, 6:20 AM)22% (Mar 28, 2:20 PM)29.36 "Hg (Mar 25, 11:50 AM)
Average55 °F68%29.93 "Hg
* Reported Mar 16 5:20 PM — Mar 31 6:50 PM, Firenze, Weather by CustomWeather, © 2015

Note: Actual official high and low records may vary slightly from our data, if they occured in-between our weather recording intervals... More about our weather records

Advertising

Firenze weather history for previous 24 hours

 ConditionsComfort  
Time TempWeatherWind HumidityBarometerVisibility
6:50 PM
Tue, Mar 31
63 °FPartly sunny.13 mph68%29.77 "HgN/A
6:20 PM63 °FPartly sunny.12 mph64%29.77 "HgN/A
5:50 PM63 °FScattered clouds.15 mph64%29.77 "HgN/A
5:20 PM64 °FPartly sunny.15 mph60%29.77 "HgN/A
4:50 PM64 °FPartly sunny.14 mph60%29.80 "HgN/A
4:20 PM64 °FScattered clouds.14 mph60%29.80 "HgN/A
3:50 PM66 °FScattered clouds.16 mph56%29.80 "HgN/A
3:20 PM66 °FScattered clouds.16 mph52%29.80 "HgN/A
2:50 PM68 °FScattered clouds.13 mph53%29.83 "HgN/A
2:20 PM68 °FScattered clouds.13 mph60%29.83 "HgN/A
1:50 PM68 °FScattered clouds.14 mph56%29.86 "HgN/A
1:20 PM68 °FScattered clouds.16 mph56%29.86 "HgN/A
12:50 PM64 °FScattered clouds.12 mph64%29.89 "HgN/A
12:20 PM64 °FScattered clouds.9 mph68%29.89 "HgN/A
11:50 AM63 °FScattered clouds.8 mph68%29.92 "HgN/A
11:20 AM63 °FScattered clouds.3 mph73%29.92 "HgN/A
10:50 AM63 °FPassing clouds.2 mph73%29.92 "Hg5 mi
10:20 AM61 °FScattered clouds.3 mph72%29.92 "Hg4 mi
9:50 AM59 °FScattered clouds.5 mph82%29.92 "Hg4 mi
9:20 AM55 °FScattered clouds.2 mph88%29.92 "Hg4 mi
8:50 AM54 °FScattered clouds.1 mph94%29.92 "Hg4 mi
8:20 AM52 °FPartly sunny.No wind94%29.92 "Hg4 mi
7:50 AM52 °FPassing clouds.1 mph94%29.92 "Hg4 mi
7:20 AM50 °FPassing clouds.2 mph94%29.89 "Hg4 mi
6:50 AM50 °FPassing clouds.2 mph100%29.89 "Hg4 mi
6:20 AM50 °FPassing clouds.2 mph94%29.89 "Hg5 mi
5:50 AM50 °FPassing clouds.2 mph94%29.89 "Hg5 mi
5:20 AM50 °FPassing clouds.3 mph94%29.89 "Hg5 mi
4:50 AM50 °FPassing clouds.2 mph94%29.92 "Hg5 mi
4:20 AM50 °FPassing clouds.1 mph94%29.92 "Hg5 mi
3:50 AM50 °FPassing clouds.3 mph94%29.89 "Hg5 mi
3:20 AM48 °FPassing clouds.1 mph94%29.92 "Hg5 mi
2:50 AM48 °FPassing clouds.2 mph94%29.89 "Hg5 mi
2:20 AM50 °FPassing clouds.1 mph94%29.89 "Hg5 mi
1:50 AM50 °FPassing clouds.1 mph94%29.89 "Hg5 mi
1:20 AM50 °FPassing clouds.5 mph94%29.89 "Hg5 mi
12:50 AM48 °FPassing clouds.5 mph94%29.89 "Hg5 mi
12:20 AM52 °FPassing clouds.5 mph88%29.86 "Hg5 mi
11:50 PM
Mon, Mar 30
52 °FPassing clouds.6 mph94%29.86 "HgN/A
11:20 PM52 °FPassing clouds.5 mph88%29.86 "HgN/A
10:50 PM52 °FPassing clouds.3 mph94%29.86 "HgN/A
10:20 PM54 °FPassing clouds.2 mph88%29.83 "HgN/A
9:50 PM54 °FPassing clouds.5 mph88%29.83 "HgN/A
9:20 PM54 °FPassing clouds.2 mph88%29.83 "HgN/A
8:50 PM57 °FPassing clouds.6 mph82%29.80 "HgN/A
8:20 PM57 °FScattered clouds.8 mph82%29.80 "HgN/A
Weather by CustomWeather, © 2015

See weather overviewHow to use our weather pages